sat.trackr.live / text

‹ back to catalog

2025-013E

NORAD 62733 · 2025-013E

PAYLOAD ACTIVE UNKNOWN

§ Identity

Operator
Country
PRC
Launch date
2025-01-20
Launch site
JSC
Launch vehicle
Mass (kg)
RCS (m²)

External: N2YO · Heavens-Above · Gunter

§ Orbital elements

Epoch: 2026-09-22T22:36:24.885216Z

Period
95.26 min
Inclination
97.6648°
Eccentricity
0.0009512
Mean motion
15.11596960 rev/d
Perigee alt
524.8 km
Apogee alt
537.9 km
Semi-major
6,909.5 km
B*
1.4673e-4
RAAN
75.4650°
Arg perigee
49.4521°
Mean anomaly
310.7536°
Rev number
9,198

§ Raw data

2025-013E1 62733U 25013E   26265.94195469  .00002427  00000+0  14673-3 0  99982 62733  97.6648  75.4650 0009512  49.4521 310.7536 15.11596960 91987

JSON: /api/v1/satellites/62733 · /tle

For live sub-satellite position, see the globe view (requires WebGL).

§ Visibility from observer

Set your observer location to see the next 7 days of passes ≥ 10°. The values pass through the URL so the page stays shareable.

No JS? Fill the form by hand. The geolocation button needs JavaScript.